Weather History for Athens, OH

Change the Weather History Date:

Monday, March 4, 2013

  Actual Average (KPKB) Record (KPKB)
Temperature  
Mean Temperature 30 °F 39 °F  
Max Temperature 42 °F 49 °F 82 °F (1976)
Min Temperature 17 °F 29 °F -3 °F (1943)
Degree Days  
Heating Degree Days 36 26  
Month to date heating degree days 105  
Since 1 July heating degree days 3895  
Cooling Degree Days 0 0  
Month to date cooling degree days 0  
Year to date cooling degree days 0  
Moisture  
Dew Point 17 °F    
Average Humidity 59    
Maximum Humidity 88    
Minimum Humidity 29    
Precipitation  
Precipitation 0.00 in 0.10 in 0.83 in (2008)
Month to date precipitation 0.41  
Year to date precipitation 6.06  
Sea Level Pressure  
Sea Level Pressure 30.10 in    
Wind  
Wind Speed 1 mph (WSW)    
Max Wind Speed 10 mph    
Max Gust Speed 17 mph    
Visibility 10 miles    
Events      
T = Trace of Precipitation, MM = Missing Value Source: NWS Daily Summary

Daily Weather History Graph

Daily Weather History Graph

Search for Another Location

Airport:

Trip Planner

Search our weather history database for the weather conditions in past years. The results will help you decide how hot, cold, wet, or windy it might be!

Date:

Astronomy

Mar. 04, 2013 Rise Set
Actual Time 6:56 AM EST 6:24 PM EST
Civil Twilight 6:30 AM EST 6:51 PM EST
Nautical Twilight 5:59 AM EST 7:22 PM EST
Astronomical Twilight 5:28 AM EST 7:53 PM EST
Moon 1:03 AM EST (3/4) 11:07 AM EST (3/4)
Length of Visible Light 12h 21m
Length of Day
11h 28m
Waning Gibbous, 52% of the Moon is Illuminated
Mar 4
Waning Gibbous
Mar 4
Last Quarter
Mar 11
New
Mar 19
First Quarter
Mar 27
Full

Hourly Weather History & Observations

Time (EST) Temp. Windchill Dew Point Humidity Pressure Visibility Wind Dir Wind Speed Gust Speed Precip Events Conditions
12:15 AM 27.3 °F - 15.8 °F 62% 30.07 in 10.0 mi Calm Calm - N/A   Overcast
12:35 AM 26.6 °F - 16.9 °F 67% 30.07 in 10.0 mi Calm Calm - N/A   Overcast
12:55 AM 27.1 °F - 14.9 °F 60% 30.07 in 10.0 mi Calm Calm - N/A   Overcast
1:15 AM 26.6 °F - 17.6 °F 69% 30.08 in 10.0 mi Calm Calm - N/A   Overcast
1:35 AM 26.6 °F - 19.0 °F 73% 30.09 in 10.0 mi Calm Calm - N/A   Overcast
1:55 AM 26.2 °F - 19.2 °F 75% 30.09 in 10.0 mi Calm Calm - N/A   Overcast
2:15 AM 26.4 °F - 19.0 °F 74% 30.09 in 10.0 mi Calm Calm - N/A   Overcast
2:35 AM 26.1 °F - 19.0 °F 75% 30.09 in 10.0 mi Calm Calm - N/A   Overcast
2:55 AM 25.7 °F - 18.7 °F 75% 30.09 in 10.0 mi Calm Calm - N/A   Mostly Cloudy
3:15 AM 24.3 °F - 15.3 °F 69% 30.09 in 10.0 mi Calm Calm - N/A   Scattered Clouds
3:35 AM 23.5 °F - 17.1 °F 76% 30.09 in 10.0 mi Calm Calm - N/A   Mostly Cloudy
3:55 AM 22.8 °F - 16.5 °F 77% 30.09 in 10.0 mi Calm Calm - N/A   Mostly Cloudy
4:15 AM 21.0 °F - 16.2 °F 81% 30.10 in 10.0 mi Calm Calm - N/A   Scattered Clouds
4:35 AM 19.4 °F - 15.1 °F 83% 30.10 in 10.0 mi Calm Calm - N/A   Clear
4:55 AM 20.1 °F - 14.9 °F 80% 30.11 in 10.0 mi Calm Calm - N/A   Clear
5:15 AM 18.5 °F 13.3 °F 14.7 °F 85% 30.12 in 10.0 mi WSW 3.5 mph - N/A   Clear
5:35 AM 18.5 °F - 14.7 °F 85% 30.12 in 10.0 mi Calm Calm - N/A   Clear
6:15 AM 18.0 °F - 14.2 °F 85% 30.13 in 10.0 mi Calm Calm - N/A   Clear
6:55 AM 17.1 °F - 14.0 °F 88% 30.14 in 10.0 mi Calm Calm - N/A   Clear
7:15 AM 17.2 °F - 14.2 °F 88% 30.15 in 10.0 mi Calm Calm - N/A   Clear
7:35 AM 18.1 °F 12.9 °F 14.9 °F 87% 30.16 in 10.0 mi West 3.5 mph - N/A   Clear
7:55 AM 20.1 °F - 16.2 °F 85% 30.16 in 10.0 mi Calm Calm - N/A   Clear
8:15 AM 23.7 °F 17.8 °F 16.3 °F 73% 30.17 in 10.0 mi WSW 4.6 mph - N/A   Clear
8:35 AM 25.7 °F 21.5 °F 17.1 °F 70% 30.17 in 10.0 mi WSW 3.5 mph - N/A   Clear
8:55 AM 27.5 °F 23.6 °F 17.4 °F 66% 30.17 in 10.0 mi WSW 3.5 mph - N/A   Clear
9:15 AM 29.3 °F 23.2 °F 17.8 °F 62% 30.17 in 10.0 mi WSW 5.8 mph - N/A   Clear
9:35 AM 29.8 °F 23.9 °F 16.7 °F 58% 30.17 in 10.0 mi West 5.8 mph - N/A   Clear
9:55 AM 31.8 °F 23.3 °F 17.6 °F 56% 30.17 in 10.0 mi WSW 10.4 mph - N/A   Clear
10:15 AM 31.8 °F 26.2 °F 16.2 °F 52% 30.17 in 10.0 mi WSW 5.8 mph - N/A   Clear
10:35 AM 32.2 °F 24.4 °F 15.3 °F 50% 30.17 in 10.0 mi West 9.2 mph 17.3 mph N/A   Clear
10:55 AM 32.4 °F 26.0 °F 16.3 °F 52% 30.16 in 10.0 mi SW 6.9 mph - N/A   Clear
11:15 AM 33.1 °F 27.7 °F 14.4 °F 46% 30.15 in 10.0 mi WNW 5.8 mph - N/A   Clear
11:55 AM 34.5 °F 31.6 °F 12.7 °F 41% 30.14 in 10.0 mi NNW 3.5 mph - N/A   Clear
12:15 PM 36.3 °F 31.6 °F 12.2 °F 37% 30.13 in 10.0 mi West 5.8 mph - N/A   Clear
12:35 PM 37.0 °F 31.6 °F 12.4 °F 36% 30.12 in 10.0 mi SW 6.9 mph - N/A   Clear
12:55 PM 37.6 °F 33.1 °F 11.3 °F 34% 30.11 in 10.0 mi WSW 5.8 mph - N/A   Clear
1:15 PM 38.7 °F 34.3 °F 12.9 °F 35% 30.10 in 10.0 mi SW 5.8 mph - N/A   Clear
1:55 PM 39.6 °F 36.3 °F 12.0 °F 32% 30.09 in 10.0 mi South 4.6 mph - N/A   Clear
2:15 PM 40.3 °F - 11.8 °F 31% 30.08 in 10.0 mi Calm Calm - N/A   Clear
2:35 PM 41.4 °F 36.2 °F 12.7 °F 31% 30.07 in 10.0 mi WSW 8.1 mph - N/A   Clear
2:55 PM 40.5 °F - 11.7 °F 31% 30.07 in 10.0 mi Calm Calm - N/A   Clear
3:15 PM 41.7 °F 38.0 °F 12.2 °F 30% 30.07 in 10.0 mi SSW 5.8 mph - N/A   Clear
3:35 PM 42.1 °F 37.7 °F 12.9 °F 31% 30.06 in 10.0 mi West 6.9 mph - N/A   Clear
3:55 PM 41.5 °F 39.6 °F 12.0 °F 30% 30.06 in 10.0 mi SW 3.5 mph - N/A   Clear
4:15 PM 41.7 °F 38.8 °F 11.5 °F 29% 30.06 in 10.0 mi South 4.6 mph - N/A   Clear
4:35 PM 41.5 °F - 12.0 °F 30% 30.06 in 10.0 mi Calm Calm - N/A   Clear
4:55 PM 41.9 °F 40.0 °F 12.6 °F 30% 30.06 in 10.0 mi SSW 3.5 mph - N/A   Clear
5:15 PM 41.4 °F - 12.0 °F 30% 30.05 in 10.0 mi Calm Calm - N/A   Clear
5:55 PM 39.0 °F - 12.7 °F 34% 30.06 in 10.0 mi Calm Calm - N/A   Clear
6:15 PM 37.2 °F - 15.4 °F 41% 30.06 in 10.0 mi Calm Calm - N/A   Clear
6:35 PM 37.2 °F - 15.3 °F 41% 30.06 in 10.0 mi Calm Calm - N/A   Clear
6:55 PM 35.6 °F - 17.6 °F 48% 30.06 in 10.0 mi Calm Calm - N/A   Clear
7:15 PM 34.5 °F - 18.5 °F 52% 30.06 in 10.0 mi Calm Calm - N/A   Clear
7:35 PM 32.5 °F - 19.0 °F 58% 30.07 in 10.0 mi Calm Calm - N/A   Clear
7:55 PM 32.5 °F - 20.1 °F 60% 30.06 in 10.0 mi Calm Calm - N/A   Clear
8:15 PM 32.0 °F - 21.6 °F 65% 30.07 in 10.0 mi Calm Calm - N/A   Clear
8:35 PM 31.6 °F - 21.9 °F 67% 30.07 in 10.0 mi Calm Calm - N/A   Scattered Clouds
8:55 PM 31.6 °F - 21.0 °F 65% 30.06 in 10.0 mi Calm Calm - N/A   Scattered Clouds
9:15 PM 31.1 °F - 22.5 °F 70% 30.06 in 10.0 mi Calm Calm - N/A   Scattered Clouds
9:35 PM 31.1 °F - 21.7 °F 68% 30.04 in 10.0 mi Calm Calm - N/A   Mostly Cloudy
9:55 PM 31.1 °F - 21.9 °F 69% 30.04 in 10.0 mi Calm Calm - N/A   Overcast
10:15 PM 31.3 °F - 23.5 °F 73% 30.04 in 10.0 mi Calm Calm - N/A   Overcast
10:35 PM 31.6 °F - 22.5 °F 69% 30.05 in 10.0 mi Calm Calm - N/A   Overcast
10:55 PM 32.0 °F - 24.4 °F 74% 30.06 in 10.0 mi Calm Calm - N/A   Overcast
11:15 PM 32.0 °F - 23.2 °F 70% 30.04 in 10.0 mi Calm Calm - N/A   Overcast
11:35 PM 32.5 °F - 23.7 °F 70% 30.05 in 10.0 mi Calm Calm - N/A   Overcast
11:55 PM 32.2 °F - 24.6 °F 74% 30.06 in 10.0 mi Calm Calm - N/A   Overcast